Preview of NWS' New Version of Forecast
This preview is not operational and should not be used for support decisions.

Regional Weather Roundup (RWR)

Issued by National Weather Service (NWS)

                            
000
ASUS43 KLSX 182107
RWRMO 

WEATHER SUMMARY FOR MISSOURI
NATIONAL WEATHER SERVICE SPRINGFIELD MO
400 PM CDT SAT MAY 18 2019

NOTE: "FAIR" INDICATES FEW OR NO CLOUDS BELOW 12,000 FEET WITH NO
       SIGNIFICANT WEATHER AND/OR OBSTRUCTIONS TO VISIBILITY.
       CURRENT SKY AND/OR WEATHER CONDITIONS ARE NOT AVAILABLE FOR
       CHILLICOTHE AND FARMINGTON.

MOZ001>031-035>038-043-044-053-054-182200-
...NORTHERN AND WESTERN MISSOURI...
  
CITY           SKY/WX    TMP DP  RH WIND       PRES   REMARKS
KANSAS CTY INT TSTM      63  63 100 NW6       29.63F                  
KANSAS C DTWN  LGT RAIN  65  61  87 W7G22     29.61F                  
LEE'S SUMMIT   LGT RAIN  64  61  90 W6        29.65F FOG              
ST JOSEPH      LGT RAIN  63  62  97 W5        29.65R FOG              
CHILLICOTHE      N/A     65  63  93 W10G26    29.65R                  
KIRKSVILLE     CLOUDY    72  69  90 SE14      29.64F                  
     
$$
MOZ066>068-077>081-088>096-101>105-182200-
...SOUTHWEST MISSOURI...
  
CITY           SKY/WX    TMP DP  RH WIND       PRES   REMARKS
SPRINGFIELD    TSTM      64  61  90 SW15G32   29.75R FOG              
JOPLIN         TSTM      63  61  93 S7        29.68F                  
BRANSON        TSTM      63  59  88 W17G29    29.83R VSB 1/2          
               
$$
MOZ032>034-039>042-045>050-055>058-069>072-182200-
...CENTRAL MISSOURI...  
  
CITY           SKY/WX    TMP DP  RH WIND       PRES   REMARKS
COLUMBIA       CLOUDY    83  64  52 S18G25    29.65F                  
JEFFERSON CITY CLOUDY    85  62  46 S18G30    29.64F                  
ROLLA          PTSUNNY   81  62  52 S15G28    29.71F                  
WARRENSBURG    CLOUDY    68  63  83 W25       29.66R                  
OSAGE BEACH    CLOUDY    80  66  62 S20       29.67F                  
               
$$
MOZ051-052-059>065-182200-
...EAST CENTRAL MISSOURI...
  
CITY           SKY/WX    TMP DP  RH WIND       PRES   REMARKS
ST LOUIS INTL  PTSUNNY   87  52  29 S23G32    29.73F                  
SPIRIT OF STL  CLOUDY    86  56  35 S14G25    29.71F                  
ST CHARLES     LGT RAIN  88  56  33 S25G35    29.71F                  
                   
$$
MOZ072>076-082>087-097>100-106>115-182200-
...SOUTH CENTRAL AND SOUTHEAST MISSOURI...
  
CITY           SKY/WX    TMP DP  RH WIND       PRES   REMARKS
CAPE GIRARDEAU FAIR      86  59  39 S15G28    29.79F                  
FARMINGTON     CLOUDY    83  58  42 S17G26    29.78F                  
POPLAR BLUFF   FAIR      86  59  39 S17G29    29.78F                  
WEST PLAINS    CLOUDY    80  64  58 S17G24    29.77F                  
                                       
$$